[[{"header":{"parameterUnit":"m.s-1","parameterCategory":1,"la1":30.2991,"la2":30.254,"lo1":-89.0895,"lo2":-89.0444,"dy":0.0017,"dx":0.0017,"nx":28,"ny":28,"refTime":"2024-10-12T21:00:00:Z","depth":0,"parameterNumber":2,"parameterNumberName":"U-component_of_WINDS"},"data":[0,0,0,0,0,0,0,0,0,0,0,0,0,0,0,0,0,0,0,0,0,0,0,0,0,0,0,0,0,0,0,0,0,0,0,0,0,0,0,0,0,0,0,0,0,0,0,0,0,0,0,0,0,0,0,0,0,0,3.4083,3.4084,0,3.4193,3.4195,3.4196,3.4148,3.4145,3.4142,3.414,3.4259,3.4264,3.427,0,0,0,0,0,0,0,0,0,0,0,0,0,3.3839,3.3844,3.4083,3.4085,3.4086,3.4193,3.4195,3.4196,3.4148,3.4145,3.4142,3.4138,3.4257,3.4263,3.427,0,0,0,0,0,0,0,0,0,0,0,0,0,3.3947,3.3846,3.4083,3.4075,3.4075,3.4193,3.4195,3.4196,3.4149,3.4145,3.4141,3.4137,3.4255,3.4263,3.4271,3.4405,0,0,3.4297,3.4301,0,0,0,0,0,0,0,0,3.3941,3.3956,3.4075,3.4076,3.4076,3.4152,3.4152,3.4267,3.415,3.4121,3.414,3.4135,3.4227,3.4238,3.4267,3.4411,3.4416,3.4298,3.4303,3.4307,3.4309,0,0,0,0,0,0,0,3.3934,3.3951,3.4127,3.4076,3.4077,3.4068,3.4079,3.4174,3.4196,3.4123,3.412,3.4133,3.4227,3.4259,3.427,3.4418,3.4298,3.4305,3.4311,3.4314,3.4682,3.4686,0,0,0,0,0,0,3.3925,3.3945,3.4123,3.413,3.3997,3.4076,3.4088,3.4132,3.4194,3.42,3.4137,3.4131,3.4247,3.426,3.4274,3.4438,3.4307,3.4315,3.432,3.4677,3.4683,3.4688,0,0,0,0,0,0,3.392,3.3942,3.4119,3.4037,3.4059,3.4084,3.4134,3.4136,3.4169,3.4205,3.4209,3.4165,3.4244,3.4262,3.4374,3.4441,3.4319,3.4327,3.4672,3.4679,3.4685,3.4765,0,0,0,0,0,0,3.3913,3.394,3.3989,3.4038,3.4063,3.4215,3.4138,3.4142,3.4183,3.4176,3.4233,3.4238,3.4242,3.4361,3.4382,3.4451,3.4333,3.4666,3.4675,3.4683,3.4757,3.4774,3.4789,0,0,0,0,0,3.3905,3.4008,3.3992,3.4014,3.4125,3.4218,3.4233,3.4234,3.4188,3.424,3.4263,3.4236,3.443,3.4373,3.4396,3.4468,3.4661,3.4672,3.4682,3.475,3.4771,3.4789,0,0,0,0,0,0,3.3967,3.4014,3.3997,3.4118,3.4165,3.421,3.4274,3.4256,3.4317,3.4309,3.4309,3.4322,3.4438,3.4464,3.44,3.4604,3.4539,3.4555,3.4583,3.4603,3.4619,3.4611,3.434,0,0,0,0,0,3.3995,3.4065,3.4103,3.4206,3.423,3.4249,3.4289,3.4286,3.4335,3.4355,3.4386,3.4437,3.451,3.4557,3.4626,3.476,3.4774,3.4822,3.4838,3.4851,3.4865,3.4942,3.4965,3.4722,3.4722,3.4722,0,0,3.4053,3.4087,3.4132,3.422,3.4255,3.4331,3.4266,3.4347,3.4404,3.4368,3.4476,3.4501,3.4558,3.4682,3.4739,3.4708,3.4935,3.4864,3.4874,3.4881,3.4955,3.4978,3.4998,3.4729,3.4728,3.4727,0,0,3.4198,3.423,3.4321,3.4358,3.4413,3.4425,3.4447,3.4496,3.4511,3.4619,3.4594,3.4663,3.4787,3.483,3.4868,3.5032,3.5011,3.5055,3.514,3.5215,3.5234,3.5251,3.5313,3.5335,3.5068,3.5068,3.5069,0,3.4265,3.4375,3.4371,3.4456,3.4497,3.4466,3.4561,3.4598,3.4673,3.4704,3.4667,3.4824,3.486,3.4996,3.5036,3.5067,3.5095,3.5049,3.5231,3.5248,3.5264,3.5323,3.5346,3.5074,3.5073,3.5072,3.5072,0,3.4456,3.4533,3.4601,3.4673,3.4722,3.4811,3.4824,3.4874,3.4867,3.4884,3.4996,3.5038,3.5116,3.5148,3.5142,3.5285,3.5264,3.5229,3.5165,3.5292,3.5348,3.5371,3.5081,3.5079,3.5078,3.5076,0,0,3.4643,3.4713,3.4738,3.4772,3.4831,3.4893,3.4982,3.5057,3.5102,3.5155,3.5233,3.534,3.5309,3.5352,3.5351,3.5416,3.5549,3.5374,3.5376,3.5408,3.5713,3.574,3.5766,3.5534,3.5538,3.5542,3.5709,0,3.4795,3.495,3.495,3.5095,3.5168,3.5141,3.522,3.5267,3.5286,3.5353,3.5374,3.5451,3.5403,3.5429,3.5492,3.5519,3.561,3.5507,3.561,3.5614,3.5599,3.5795,3.5824,3.5979,3.573,3.5734,3.5737,0,3.4993,3.5052,3.5203,3.5255,3.5286,3.5356,3.5427,3.549,3.5544,3.5553,3.5603,3.5592,3.5687,3.5619,3.5752,3.5681,3.5724,3.5744,3.575,3.5761,3.5684,3.5815,3.6028,3.6053,3.5771,3.5768,3.5765,0,3.5119,3.5236,3.5343,3.5372,3.5434,3.5485,3.5513,3.5562,3.5609,3.5671,3.5702,3.5775,3.5816,3.5874,3.5886,3.5834,3.6021,3.5952,3.6034,3.6034,3.6076,3.6074,3.6303,3.61,3.6099,3.6099,3.6098,0,3.529,3.5384,3.54,3.5466,3.5573,3.5574,3.568,3.5705,3.5749,3.5822,3.5803,3.5873,3.5882,3.5954,3.5964,3.6075,3.6093,3.6106,3.6108,3.6109,3.6108,3.6138,3.6129,3.6105,3.6104,3.6102,3.6101,0,3.5449,3.5463,3.5578,3.5627,3.5642,3.5718,3.5762,3.5827,3.5844,3.5936,3.5958,3.5986,3.6071,3.6087,3.6188,3.6194,3.6328,3.6317,3.6309,3.6309,3.6391,3.6385,3.665,3.6686,3.6457,3.6459,3.6461,0,3.5558,3.563,3.5687,3.5734,3.5765,3.584,3.5887,3.5892,3.5942,3.6011,3.6068,3.6151,3.6217,3.6354,3.6385,3.6463,3.6456,3.6544,3.6468,3.6468,3.6462,3.6458,3.6467,3.6559,3.6562,3.6564,3.6566,0,3.5752,3.5756,3.5823,3.5895,3.5952,3.6008,3.6062,3.6102,3.6115,3.6173,3.6258,3.631,3.6413,3.6496,3.6574,3.6607,3.6591,3.6589,3.6613,3.6616,3.661,3.6617,3.6352,3.6583,3.6582,3.658,3.6579,3.6579,3.5892,3.5956,3.6007,3.6084,3.6125,3.6176,3.624,3.6266,3.6337,3.642,3.6419,3.6514,3.6569,3.6672,3.671,3.6786,3.6759,3.6792,3.6801,3.681,3.682,3.6595,3.68,3.68,3.6799,3.6799,3.6798,0,3.6088,3.6119,3.619,3.6266,3.6328,3.6304,3.6363,3.6417,3.6501,3.6552,3.6618,3.6719,3.6801,3.6839,3.692,3.6974,3.6969,3.6996,3.6993,3.7002,3.6838,3.681,3.6999,3.6999,3.6999,3.6999,3.6999,3.6999,3.6197,3.6305,3.6316,3.6446,3.6477,3.6569,3.6606,3.6654,3.6696,3.6809,3.6876,3.6899,3.6947,3.7032,3.7108,3.7117,3.7149,3.718,3.7187,3.7033,3.7013,3.6993,3.6968,3.7187,3.7187,3.7345,3.7346,3.7347]},{"header":{"parameterUnit":"m.s-1","parameterCategory":1,"la1":30.2991,"la2":30.254,"lo1":-89.0895,"lo2":-89.0444,"dy":0.0017,"dx":0.0017,"nx":28,"ny":28,"refTime":"2024-10-12T21:00:00:Z","depth":0,"parameterNumber":3,"parameterNumberName":"V-component_of_WINDS"},"data":[0,0,0,0,0,0,0,0,0,0,0,0,0,0,0,0,0,0,0,0,0,0,0,0,0,0,0,0,0,0,0,0,0,0,0,0,0,0,0,0,0,0,0,0,0,0,0,0,0,0,0,0,0,0,0,0,0,0,1.1099,1.11,0,1.1183,1.1183,1.1184,1.1207,1.1207,1.1206,1.1206,1.129,1.1293,1.1296,0,0,0,0,0,0,0,0,0,0,0,0,0,1.0955,1.0958,1.1099,1.11,1.1101,1.1182,1.1184,1.1185,1.1207,1.1207,1.1206,1.1205,1.1289,1.1293,1.1296,0,0,0,0,0,0,0,0,0,0,0,0,0,1.1026,1.0959,1.1099,1.1122,1.1125,1.1182,1.1184,1.1185,1.1207,1.1207,1.1206,1.1205,1.1288,1.1292,1.1296,1.1336,0,0,1.1309,1.1311,0,0,0,0,0,0,0,0,1.1022,1.1031,1.1117,1.112,1.1124,1.1184,1.1164,1.1236,1.1208,1.1176,1.1206,1.1205,1.1255,1.1262,1.1279,1.134,1.1344,1.1309,1.1312,1.1313,1.1315,0,0,0,0,0,0,0,1.1017,1.1028,1.1132,1.1119,1.1123,1.1127,1.1136,1.1178,1.1219,1.1179,1.1181,1.119,1.1257,1.1275,1.1282,1.1345,1.1309,1.1313,1.1315,1.1317,1.1439,1.1439,0,0,0,0,0,0,1.1008,1.1024,1.1129,1.1134,1.107,1.113,1.1141,1.1165,1.1218,1.1226,1.1191,1.1191,1.1269,1.1277,1.1285,1.1333,1.1313,1.1317,1.1319,1.1438,1.1439,1.144,0,0,0,0,0,0,1.1005,1.1018,1.1126,1.1079,1.1094,1.1134,1.1161,1.1167,1.1186,1.1227,1.1235,1.1202,1.1269,1.1279,1.1322,1.1336,1.1319,1.1323,1.1437,1.1438,1.1439,1.143,0,0,0,0,0,0,1.1001,1.1016,1.1033,1.108,1.1096,1.1163,1.1162,1.1169,1.1193,1.1194,1.124,1.1247,1.1269,1.1316,1.1326,1.1341,1.1326,1.1436,1.1437,1.1439,1.1429,1.1431,1.1432,0,0,0,0,0,1.0996,1.1027,1.1034,1.1046,1.1118,1.1164,1.1173,1.1198,1.1194,1.121,1.1236,1.1246,1.1333,1.132,1.1332,1.1348,1.1435,1.1437,1.1439,1.1429,1.143,1.1432,0,0,0,0,0,0,1.0982,1.1034,1.1042,1.109,1.1122,1.1168,1.1189,1.1199,1.1234,1.1233,1.1262,1.1272,1.1313,1.1335,1.1321,1.1388,1.1384,1.1388,1.1372,1.1374,1.1375,1.1369,1.1329,0,0,0,0,0,1.0984,1.1018,1.1062,1.11,1.1116,1.1149,1.1171,1.1186,1.1221,1.1235,1.1265,1.1298,1.1332,1.1354,1.1389,1.1432,1.1441,1.1449,1.145,1.1451,1.1454,1.1476,1.1479,1.1446,1.1446,1.1445,0,0,1.099,1.1022,1.1042,1.1098,1.1125,1.1158,1.1161,1.1197,1.1221,1.1241,1.1283,1.1305,1.1344,1.1387,1.1407,1.1406,1.1465,1.1453,1.1453,1.1456,1.1478,1.1481,1.1484,1.1447,1.1447,1.1446,0,0,1.1016,1.1045,1.1079,1.1105,1.1146,1.1168,1.1175,1.1219,1.1235,1.1278,1.1292,1.1321,1.138,1.1406,1.1427,1.146,1.1469,1.147,1.1477,1.1498,1.1501,1.1503,1.1513,1.1517,1.1473,1.1473,1.1473,0,1.1018,1.1069,1.1095,1.1129,1.1152,1.117,1.1203,1.1227,1.1277,1.1292,1.129,1.1363,1.139,1.1438,1.1446,1.1463,1.1471,1.1465,1.1498,1.1501,1.1504,1.1514,1.1517,1.1473,1.1473,1.1473,1.1473,0,1.1068,1.1103,1.1125,1.1172,1.1197,1.1231,1.126,1.1282,1.1295,1.1316,1.1358,1.1391,1.1431,1.1443,1.1456,1.1492,1.149,1.1493,1.149,1.1506,1.1516,1.152,1.1472,1.1473,1.1473,1.1473,0,0,1.109,1.1148,1.1156,1.1176,1.1221,1.1248,1.1281,1.132,1.1337,1.137,1.1397,1.1446,1.1448,1.1471,1.1487,1.1506,1.1527,1.1506,1.1507,1.1508,1.1566,1.1563,1.1567,1.1533,1.1534,1.1534,1.1562,0,1.1121,1.1182,1.1204,1.1253,1.1285,1.1301,1.1329,1.1359,1.1379,1.1407,1.1429,1.1462,1.1464,1.1477,1.1496,1.152,1.1539,1.1519,1.1557,1.1558,1.1547,1.1572,1.157,1.1595,1.1566,1.1567,1.1567,0,1.1167,1.1199,1.1251,1.1289,1.1303,1.1329,1.1364,1.1392,1.1425,1.1438,1.1463,1.1477,1.151,1.1504,1.1549,1.1535,1.1551,1.1565,1.1566,1.1571,1.1564,1.1576,1.1603,1.1606,1.1574,1.1573,1.1573,0,1.1175,1.1232,1.127,1.1287,1.1333,1.135,1.1369,1.1402,1.1422,1.1453,1.1467,1.1501,1.152,1.1545,1.1567,1.1561,1.1609,1.1606,1.162,1.1619,1.1629,1.1628,1.1658,1.1641,1.1641,1.1641,1.1641,0,1.1207,1.1238,1.1274,1.1297,1.1331,1.1355,1.1388,1.1409,1.1437,1.1463,1.1479,1.1503,1.1531,1.1558,1.1575,1.1608,1.1617,1.1627,1.1631,1.1626,1.1624,1.1637,1.1636,1.1642,1.1642,1.1641,1.1641,0,1.1223,1.1248,1.129,1.133,1.134,1.1363,1.1397,1.1419,1.1438,1.1471,1.148,1.1511,1.1544,1.1568,1.161,1.1621,1.1657,1.1661,1.1646,1.1648,1.166,1.1658,1.1699,1.1705,1.1684,1.1684,1.1684,0,1.1242,1.1266,1.1307,1.1326,1.1345,1.1376,1.1396,1.142,1.1441,1.1479,1.1496,1.1529,1.1557,1.1608,1.1633,1.1665,1.167,1.1682,1.1675,1.1668,1.1669,1.1667,1.1669,1.1683,1.1683,1.1683,1.1683,0,1.1272,1.1282,1.1312,1.1346,1.137,1.1398,1.1426,1.144,1.1468,1.149,1.1524,1.1545,1.1587,1.162,1.1653,1.1672,1.1682,1.1685,1.169,1.1684,1.1674,1.1678,1.1647,1.1684,1.1684,1.1684,1.1684,1.1684,1.1289,1.131,1.1341,1.1373,1.1396,1.1421,1.1444,1.1465,1.1494,1.153,1.1542,1.1576,1.1605,1.1651,1.167,1.1696,1.1696,1.1703,1.1705,1.1706,1.1705,1.1669,1.1702,1.1702,1.1702,1.1702,1.1702,0,1.1318,1.1339,1.1368,1.1406,1.143,1.1437,1.1467,1.1487,1.1517,1.1544,1.157,1.1607,1.1638,1.1665,1.1696,1.1711,1.1716,1.1719,1.1718,1.1722,1.1704,1.1696,1.1714,1.1714,1.1714,1.1714,1.1714,1.1714,1.1336,1.1372,1.1385,1.1431,1.1452,1.1485,1.1502,1.1524,1.1545,1.1586,1.1611,1.1628,1.1655,1.1688,1.1715,1.1722,1.1733,1.1734,1.1742,1.1725,1.1723,1.1722,1.1715,1.1736,1.1736,1.1757,1.1757,1.1758]}]]